User: anonymous   Login
Location: Unspecified
(0.0000°N, 0.0000°E)
Time: 17:29:22
(UTC+00:00)
Language:

COSMOS 2400 - Orbit

View from above orbital plane
View from above orbital plane
View from above satellite
View from above satellite

Ground track
Ground track

The orbit data is extracted from the following two-line orbital elements,

1 27868U 03037A   18049.67618473  .00000030  00000-0  14077-3 0  9993
2 27868  82.4683  76.2053 0020767 227.4563 132.4765 12.45133343659230
Epoch (UTC): 18 February 2018 16:13:42
Eccentricity: 0.0020767
inclination: 82.4683°
perigee height: 1468 km
apogee height: 1501 km
right ascension of ascending node: 76.2053°
argument of perigee: 227.4563°
revolutions per day: 12.45133343
mean anomaly at epoch: 132.4765°
orbit number at epoch: 65923

The dashed part of the orbit path shows where the satellite is in the earth's shadow,  

DLR